Voltar ao catálogo

FENGYUN 1C DEB

LostSSO
NORAD 30986·DEBRIS·🇨🇳 China

Lançado May 10, 1999 de Taiyuan Satellite Launch Center

Loading…

Próximas Passagens (próximas 24 horas)

TLE

ObsoletoSource: Space-Track

Época: Apr 16, 2024, 08:27 UTC

1 30986U 99025BCC 24107.35249051  .00004114  00000-0  17425-2 0  9995
2 30986  98.5841 148.8918 0051717 172.7418 250.3641 14.25239592886749

Acompanhe FENGYUN 1C DEB em tempo real com AllMySat

Download on the App Store